TimeCDT,TemperatureF,Dew PointF,Humidity,Sea Level PressureIn,VisibilityMPH,Wind Direction,Wind SpeedMPH,Gust SpeedMPH,PrecipitationIn,Events,Conditions,WindDirDegrees,DateUTC
12:53 AM,64.0,55.9,75,30.17,10.0,Calm,Calm,-,N/A,,Clear,0,2013-05-26 05:53:00
1:53 AM,63.0,57.0,81,30.15,10.0,Calm,Calm,-,N/A,,Clear,0,2013-05-26 06:53:00
2:53 AM,62.1,55.9,80,30.14,10.0,Calm,Calm,-,N/A,,Clear,0,2013-05-26 07:53:00
3:53 AM,61.0,55.9,83,30.16,10.0,Calm,Calm,-,N/A,,Clear,0,2013-05-26 08:53:00
4:53 AM,61.0,55.9,83,30.19,10.0,Calm,Calm,-,N/A,,Clear,0,2013-05-26 09:53:00
5:53 AM,62.1,57.0,84,30.20,10.0,Calm,Calm,-,N/A,,Clear,0,2013-05-26 10:53:00
6:53 AM,64.0,59.0,84,30.21,10.0,Calm,Calm,-,N/A,,Clear,0,2013-05-26 11:53:00
7:53 AM,72.0,62.1,71,30.23,10.0,South,4.6,-,N/A,,Clear,190,2013-05-26 12:53:00
8:53 AM,79.0,64.9,62,30.23,10.0,SSW,12.7,-,N/A,,Clear,200,2013-05-26 13:53:00
9:53 AM,80.1,63.0,56,30.24,10.0,Variable,5.8,-,N/A,,Clear,0,2013-05-26 14:53:00
10:53 AM,82.9,62.1,49,30.23,10.0,SSW,5.8,-,N/A,,Clear,210,2013-05-26 15:53:00
11:53 AM,86.0,57.9,38,30.21,10.0,East,4.6,-,N/A,,Partly Cloudy,90,2013-05-26 16:53:00
12:53 PM,86.0,57.0,37,30.19,10.0,NNW,5.8,-,N/A,,Mostly Cloudy,330,2013-05-26 17:53:00
1:53 PM,88.0,54.0,31,30.17,10.0,West,3.5,-,N/A,,Partly Cloudy,270,2013-05-26 18:53:00
2:53 PM,89.1,53.1,29,30.15,10.0,West,6.9,-,N/A,,Partly Cloudy,270,2013-05-26 19:53:00
3:53 PM,91.0,51.1,25,30.13,10.0,West,9.2,-,N/A,,Scattered Clouds,260,2013-05-26 20:53:00
4:53 PM,89.1,52.0,28,30.12,10.0,South,5.8,-,N/A,,Scattered Clouds,190,2013-05-26 21:53:00
5:53 PM,88.0,50.0,27,30.12,10.0,SW,3.5,-,N/A,,Overcast,220,2013-05-26 22:53:00
6:53 PM,86.0,54.0,33,30.12,10.0,Calm,Calm,-,N/A,,Clear,0,2013-05-26 23:53:00
7:53 PM,80.1,64.9,60,30.13,10.0,SW,8.1,-,N/A,,Scattered Clouds,230,2013-05-27 00:53:00
8:53 PM,75.9,64.0,67,30.15,10.0,SSW,6.9,-,N/A,,Clear,210,2013-05-27 01:53:00
9:53 PM,73.9,63.0,68,30.16,10.0,SW,5.8,-,N/A,,Clear,220,2013-05-27 02:53:00
10:53 PM,72.0,64.0,76,30.17,10.0,Calm,Calm,-,N/A,,Clear,0,2013-05-27 03:53:00
11:53 PM,70.0,64.0,81,30.17,10.0,SSW,3.5,-,N/A,,Clear,210,2013-05-27 04:53:00